This demonstration page uses our WeatherBlox Daily Observations layout. Learn more.

36.17497, -115.13722

Hourly Observations for February 2, 2015

Temp ( °F °C ) Dew Point ( °F °C ) Humidity (%) Winds ( mph kmh ) Pressure ( in mb ) Visibility ( mi km ) Precip ( " mm )
12:53 am 00:53 Clear 49 9.4 34 1.1 56 56 N 5 7 30.19 1023 10 16.0934 0 0
1:53 am 01:53 Clear 48 8.9 34 1.1 58 58 N 6 9 30.2 1023 10 16.0934 0 0
2:53 am 02:53 Clear 47 8.3 33 0.6 59 59 NNW 3 6 30.19 1022 10 16.0934 0 0
3:53 am 03:53 Clear 47 8.3 33 0.6 59 59 Calm 30.19 1022 10 16.0934 0 0
4:53 am 04:53 Clear 46 7.8 33 0.6 61 61 WNW 5 7 30.19 1022 10 16.0934 0 0
5:53 am 05:53 Clear 44 6.7 33 0.6 65 65 W 3 6 30.21 1023 10 16.0934 0 0
6:53 am 06:53 Sunny 44 6.7 32 0 63 63 WNW 3 6 30.23 1024 10 16.0934 0 0
7:53 am 07:53 Sunny 48 8.9 33 0.6 56 56 Calm 30.24 1024 10 16.0934 0 0
8:53 am 08:53 Sunny 52 11.1 34 1.1 50 50 Calm 30.25 1024 10 16.0934 0 0
9:53 am 09:53 Sunny 56 13.3 34 1.1 44 44 Calm 30.24 1024 10 16.0934 0 0
10:53 am 10:53 Sunny 59 15 33 0.6 38 38 Calm 30.23 1024 10 16.0934 0 0
11:53 am 11:53 Sunny 60 15.6 29 -1.7 31 31 Calm 30.19 1023 10 16.0934 0 0
12:53 pm 12:53 Sunny 63 17.2 30 -1.1 29 29 Calm 30.15 1021 10 16.0934 0 0
1:53 pm 13:53 Sunny 65 18.3 30 -1.1 27 27 Calm 30.11 1020 10 16.0934 0 0
2:53 pm 14:53 Sunny 65 18.3 29 -1.7 26 26 ESE 6 9 30.09 1019 10 16.0934 0 0
3:53 pm 15:53 Sunny 64 17.8 31 -0.6 29 29 E 3 6 30.09 1019 10 16.0934 0 0
4:53 pm 16:53 Sunny 63 17.2 33 0.6 33 33 ESE 5 7 30.08 1019 10 16.0934 0 0
5:53 pm 17:53 Clear 62 16.7 31 -0.6 31 31 Calm 30.1 1019 10 16.0934 0 0
6:53 pm 18:53 Clear 59 15 35 1.7 41 41 Calm 30.11 1020 10 16.0934 0 0
7:53 pm 19:53 Clear 57 13.9 36 2.2 45 45 NNW 3 6 30.11 1020 10 16.0934 0 0
8:53 pm 20:53 Clear 54 12.2 37 2.8 53 53 NW 5 7 30.11 1020 10 16.0934 0 0
9:53 pm 21:53 Clear 53 11.7 38 3.3 57 57 NNW 7 11 30.11 1020 10 16.0934 0 0
10:53 pm 22:53 Clear 52 11.1 37 2.8 57 57 WNW 6 9 30.11 1020 10 16.0934 0 0
11:53 pm 23:53 Clear 50 10 38 3.3 63 63 Calm 30.11 1020 10 16.0934 0 0

Powered by AerisWeather